When you browse on this site, cookies collect data to enhance your experience and personalize the content and advertising you see.
Visit our Privacy Policy to learn more. By continuing to use the site, you agree to this use of cookies and data.
  • In Sweden
  • List of Countries
  • For 7 days
  • Water Temperature
  • Weather Map
  • Weather Widgets
  • user-avatar
    Login

    Hourly Weather Banfora

    Today, 28 May, Thursday

    Time Temperature Precipitation Wind Pressure Humidity
    00:00 +30°C° 0 mm 1 mps 734 mmHg 64%
    01:00 +30°C° 0.3 mm 1 mps 733 mmHg 67%
    02:00 +29°C° 0.3 mm 1 mps 733 mmHg 69%
    03:00 +29°C° 0.3 mm 2 mps 733 mmHg 72%
    04:00 +28°C° 0 mm 1 mps 733 mmHg 75%
    05:00 +28°C° 0 mm 1 mps 733 mmHg 78%
    06:00 +28°C° 0 mm 1 mps 733 mmHg 82%
    07:00 +29°C° 0 mm 1 mps 733 mmHg 75%
    08:00 +31°C° 0 mm 1 mps 734 mmHg 68%
    09:00 +32°C° 0 mm 1 mps 734 mmHg 61%
    10:00 +34°C° 0 mm 1 mps 734 mmHg 54%
    11:00 +36°C° 0 mm 1 mps 733 mmHg 47%
    12:00 +39°C° 0 mm 1 mps 733 mmHg 40%
    13:00 +39°C° 0 mm 1 mps 732 mmHg 39%
    14:00 +39°C° 0 mm 1 mps 732 mmHg 37%
    15:00 +39°C° 0 mm 2 mps 731 mmHg 35%
    16:00 +36°C° 0.7 mm 2 mps 731 mmHg 47%
    17:00 +33°C° 0.7 mm 3 mps 731 mmHg 58%
    18:00 +30°C° 0.7 mm 4 mps 731 mmHg 70%
    19:00 +29°C° 1.1 mm 3 mps 732 mmHg 72%
    20:00 +29°C° 1.1 mm 3 mps 733 mmHg 74%
    21:00 +28°C° 1.1 mm 3 mps 733 mmHg 76%
    22:00 +28°C° 0.1 mm 2 mps 734 mmHg 75%
    23:00 +28°C° 0.1 mm 2 mps 734 mmHg 75%

    Tomorrow, 29 May, Friday

    Time Temperature Precipitation Wind Pressure Humidity
    00:00 +28°C° 0.1 mm 1 mps 734 mmHg 74%
    01:00 +28°C° 0 mm 1 mps 733 mmHg 74%
    02:00 +28°C° 0 mm 1 mps 733 mmHg 73%
    03:00 +26°C° 0 mm 0 mps 732 mmHg 73%
    04:00 +28°C° 0 mm 1 mps 732 mmHg 74%
    05:00 +28°C° 0 mm 1 mps 732 mmHg 75%
    06:00 +28°C° 0 mm 1 mps 732 mmHg 76%
    07:00 +29°C° 0 mm 1 mps 733 mmHg 70%
    08:00 +30°C° 0 mm 1 mps 733 mmHg 64%
    09:00 +32°C° 0 mm 2 mps 734 mmHg 58%
    10:00 +34°C° 0 mm 2 mps 733 mmHg 55%
    11:00 +35°C° 0 mm 2 mps 733 mmHg 52%
    12:00 +36°C° 0 mm 2 mps 733 mmHg 49%
    13:00 +36°C° 0 mm 2 mps 732 mmHg 46%
    14:00 +37°C° 0 mm 2 mps 732 mmHg 44%
    15:00 +38°C° 0 mm 2 mps 731 mmHg 41%
    16:00 +37°C° 0 mm 2 mps 731 mmHg 45%
    17:00 +35°C° 0 mm 1 mps 731 mmHg 49%
    18:00 +34°C° 0 mm 1 mps 730 mmHg 53%
    19:00 +33°C° 0.1 mm 1 mps 731 mmHg 56%
    20:00 +32°C° 0.1 mm 1 mps 732 mmHg 59%
    21:00 +31°C° 0.1 mm 1 mps 732 mmHg 62%
    22:00 +30°C° 0.1 mm 2 mps 732 mmHg 67%
    23:00 +29°C° 0.1 mm 2 mps 732 mmHg 73%

    Day after tomorrow, 30 May, Saturday

    Time Temperature Precipitation Wind Pressure Humidity
    00:00 +28°C° 0.1 mm 3 mps 732 mmHg 78%
    01:00 +28°C° 0 mm 2 mps 732 mmHg 79%
    02:00 +28°C° 0 mm 2 mps 732 mmHg 80%
    03:00 +27°C° 0 mm 2 mps 732 mmHg 81%
    04:00 +27°C° 0 mm 2 mps 732 mmHg 82%
    05:00 +27°C° 0 mm 2 mps 732 mmHg 82%
    06:00 +26°C° 0 mm 2 mps 732 mmHg 83%
    07:00 +27°C° 0.2 mm 2 mps 733 mmHg 77%
    08:00 +28°C° 0.2 mm 2 mps 733 mmHg 71%
    09:00 +30°C° 0.2 mm 3 mps 734 mmHg 65%
    10:00 +31°C° 0 mm 3 mps 734 mmHg 58%
    11:00 +34°C° 0 mm 3 mps 734 mmHg 51%
    12:00 +36°C° 0 mm 3 mps 733 mmHg 44%
    13:00 +36°C° 0 mm 3 mps 733 mmHg 44%
    14:00 +37°C° 0 mm 3 mps 732 mmHg 43%
    15:00 +37°C° 0 mm 3 mps 731 mmHg 42%
    16:00 +36°C° 0 mm 3 mps 731 mmHg 45%
    17:00 +36°C° 0 mm 2 mps 731 mmHg 47%
    18:00 +35°C° 0 mm 2 mps 731 mmHg 50%
    19:00 +32°C° 0.4 mm 1 mps 732 mmHg 56%
    20:00 +31°C° 0.4 mm 1 mps 732 mmHg 62%
    21:00 +30°C° 0.4 mm 1 mps 733 mmHg 67%
    22:00 +29°C° 0.2 mm 2 mps 733 mmHg 71%
    23:00 +28°C° 0.2 mm 2 mps 733 mmHg 75%

    31 May, Sunday

    Time Temperature Precipitation Wind Pressure Humidity
    00:00 +28°C° 0.2 mm 2 mps 733 mmHg 79%
    01:00 +27°C° 0.1 mm 2 mps 733 mmHg 80%
    02:00 +27°C° 0.1 mm 2 mps 733 mmHg 80%
    03:00 +27°C° 0.1 mm 2 mps 732 mmHg 81%
    04:00 +27°C° 0.1 mm 2 mps 733 mmHg 83%
    05:00 +26°C° 0.1 mm 2 mps 733 mmHg 84%
    06:00 +26°C° 0.1 mm 1 mps 734 mmHg 86%
    07:00 +27°C° 0 mm 1 mps 734 mmHg 79%
    08:00 +29°C° 0 mm 1 mps 734 mmHg 73%
    09:00 +30°C° 0 mm 2 mps 735 mmHg 66%
    10:00 +32°C° 0 mm 2 mps 735 mmHg 58%
    11:00 +35°C° 0 mm 2 mps 734 mmHg 50%
    12:00 +37°C° 0 mm 2 mps 734 mmHg 43%
    13:00 +38°C° 0 mm 2 mps 733 mmHg 40%
    14:00 +39°C° 0 mm 1 mps 733 mmHg 37%
    15:00 +40°C° 0 mm 1 mps 732 mmHg 34%
    16:00 +39°C° 0 mm 1 mps 732 mmHg 36%
    17:00 +37°C° 0 mm 1 mps 732 mmHg 39%
    18:00 +36°C° 0 mm 1 mps 732 mmHg 41%
    19:00 +35°C° 0 mm 1 mps 732 mmHg 45%
    20:00 +34°C° 0 mm 1 mps 733 mmHg 48%
    21:00 +33°C° 0 mm 1 mps 733 mmHg 51%
    22:00 +32°C° 0 mm 1 mps 733 mmHg 55%
    23:00 +31°C° 0 mm 1 mps 734 mmHg 58%

    1 June, Monday

    Time Temperature Precipitation Wind Pressure Humidity
    00:00 +30°C° 0 mm 1 mps 734 mmHg 62%
    01:00 +30°C° 0.2 mm 1 mps 733 mmHg 66%
    02:00 +29°C° 0.2 mm 1 mps 733 mmHg 69%
    03:00 +29°C° 0.2 mm 1 mps 733 mmHg 73%
    04:00 +28°C° 0.3 mm 1 mps 733 mmHg 75%
    05:00 +28°C° 0.3 mm 1 mps 733 mmHg 77%
    06:00 +28°C° 0.3 mm 1 mps 733 mmHg 79%
    07:00 +29°C° 0 mm 2 mps 734 mmHg 73%
    08:00 +31°C° 0 mm 2 mps 734 mmHg 68%
    09:00 +33°C° 0 mm 3 mps 735 mmHg 62%
    10:00 +35°C° 0 mm 3 mps 734 mmHg 55%
    11:00 +37°C° 0 mm 2 mps 734 mmHg 48%
    12:00 +39°C° 0 mm 2 mps 734 mmHg 41%
    13:00 +40°C° 0 mm 2 mps 733 mmHg 38%
    14:00 +41°C° 0 mm 1 mps 732 mmHg 34%
    15:00 +42°C° 0 mm 1 mps 731 mmHg 31%
    16:00 +41°C° 0 mm 1 mps 731 mmHg 33%
    17:00 +40°C° 0 mm 1 mps 731 mmHg 36%
    18:00 +37°C° 0 mm 1 mps 731 mmHg 38%
    19:00 +36°C° 0.1 mm 1 mps 732 mmHg 43%
    20:00 +34°C° 0.1 mm 1 mps 732 mmHg 48%
    21:00 +33°C° 0.1 mm 1 mps 733 mmHg 53%
    22:00 +31°C° 1.3 mm 1 mps 733 mmHg 61%
    23:00 +30°C° 1.3 mm 1 mps 733 mmHg 69%

    2 June, Tuesday

    Time Temperature Precipitation Wind Pressure Humidity
    00:00 +29°C° 1.3 mm 2 mps 733 mmHg 77%
    01:00 +29°C° 0 mm 2 mps 733 mmHg 78%
    02:00 +28°C° 0 mm 2 mps 732 mmHg 79%
    03:00 +28°C° 0 mm 2 mps 732 mmHg 80%
    04:00 +28°C° 0 mm 2 mps 732 mmHg 81%
    05:00 +27°C° 0 mm 2 mps 733 mmHg 82%
    06:00 +27°C° 0 mm 2 mps 733 mmHg 84%
    07:00 +28°C° 0 mm 3 mps 733 mmHg 79%
    08:00 +30°C° 0 mm 3 mps 734 mmHg 74%
    09:00 +31°C° 0 mm 3 mps 734 mmHg 69%
    10:00 +34°C° 0 mm 3 mps 734 mmHg 61%
    11:00 +36°C° 0 mm 3 mps 733 mmHg 54%
    12:00 +38°C° 0 mm 3 mps 733 mmHg 46%
    13:00 +39°C° 0 mm 3 mps 732 mmHg 42%
    14:00 +39°C° 0 mm 2 mps 732 mmHg 39%
    15:00 +40°C° 0 mm 2 mps 731 mmHg 35%
    16:00 +40°C° 0 mm 2 mps 731 mmHg 37%
    17:00 +39°C° 0 mm 2 mps 731 mmHg 39%
    18:00 +37°C° 0 mm 1 mps 731 mmHg 41%
    19:00 +36°C° 0.3 mm 2 mps 731 mmHg 48%
    20:00 +34°C° 0.3 mm 2 mps 732 mmHg 55%
    21:00 +32°C° 0.3 mm 2 mps 732 mmHg 62%
    22:00 +31°C° 0.1 mm 2 mps 732 mmHg 66%
    23:00 +30°C° 0.1 mm 2 mps 732 mmHg 71%
    Show more